Frederick, MD

9:32 PM EST on February 10, 2016 (GMT -0500)
Frederick Municipal

Weather History for KFDK - April, 2013

Change the Weather History Date:

Friday, April 12, 2013

  Actual Average (KHGR) Record (KHGR)
Temperature  
Mean Temperature 55 °F 52 °F  
Max Temperature 60 °F 62 °F 76 °F (2008)
Min Temperature 50 °F 42 °F 33 °F (2009)
Degree Days  
Heating Degree Days 10 14  
Month to date heating degree days 188  
Since 1 July heating degree days 4820  
Cooling Degree Days 0 0  
Month to date cooling degree days 0  
Year to date cooling degree days 1  
Growing Degree Days 5 (Base 50)    
Moisture  
Dew Point 52 °F    
Average Humidity 97    
Maximum Humidity 100    
Minimum Humidity 88    
Precipitation  
Precipitation 0.02 in 0.12 in 1.18 in (2004)
Month to date precipitation 1.52  
Year to date precipitation 10.13  
Sea Level Pressure  
Sea Level Pressure 29.75 in    
Wind  
Wind Speed 9 mph (NE)    
Max Wind Speed 16 mph    
Max Gust Speed 16 mph    
Visibility 6 miles    
Events Rain , Thunderstorm    
T = Trace of Precipitation, MM = Missing Value Source: NWS Daily Summary

Daily Weather History Graph

Daily Weather History Graph

Search for Another Location

Airport or City:

Trip Planner

Search our weather history database for the weather conditions in past years. The results will help you decide how hot, cold, wet, or windy it might be!

Date:

Astronomy

Apr. 12, 2013 Rise Set
Actual Time 6:36 AM EDT 7:44 PM EDT
Civil Twilight 6:08 AM EDT 8:12 PM EDT
Nautical Twilight 5:35 AM EDT 8:45 PM EDT
Astronomical Twilight 5:01 AM EDT 9:19 PM EDT
Moon 7:45 AM EDT (4/12) 10:12 PM EDT (4/12)
Length of Visible Light 14h 03m
Length of Day
13h 08m
Waxing Crescent, 5% of the Moon is Illuminated
Apr 12
Waxing Crescent
Apr 18
First Quarter
Apr 25
Full
May 2
Last Quarter
May 9
New

Hourly Weather History & Observations

Time (EDT) Temp. Dew Point Humidity Pressure Visibility Wind Dir Wind Speed Gust Speed Precip Events Conditions
12:05 AM 55.4 °F 51.8 °F 88% 29.86 in 10.0 mi ENE 10.4 mph - N/A   Overcast
12:25 AM 55.4 °F 53.6 °F 94% 29.85 in 10.0 mi ENE 11.5 mph - N/A   Overcast
12:45 AM 55.4 °F 51.8 °F 88% 29.85 in 7.0 mi ENE 10.4 mph 16.1 mph N/A   Overcast
1:05 AM 53.6 °F 51.8 °F 94% 29.84 in 7.0 mi NE 9.2 mph - N/A   Overcast
1:25 AM 53.6 °F 51.8 °F 94% 29.84 in 7.0 mi NE 5.8 mph - N/A   Overcast
1:45 AM 53.6 °F 51.8 °F 94% 29.84 in 7.0 mi East 10.4 mph 16.1 mph N/A   Overcast
2:05 AM 53.6 °F 51.8 °F 94% 29.83 in 7.0 mi ENE 9.2 mph - N/A   Overcast
2:25 AM 53.6 °F 51.8 °F 94% 29.83 in 7.0 mi ENE 8.1 mph - N/A   Overcast
2:45 AM 51.8 °F 51.8 °F 100% 29.82 in 7.0 mi ENE 8.1 mph - N/A   Overcast
3:05 AM 51.8 °F 51.8 °F 100% 29.81 in 7.0 mi East 10.4 mph - N/A   Overcast
3:25 AM 51.8 °F 51.8 °F 100% 29.79 in 7.0 mi ENE 8.1 mph - N/A   Overcast
3:45 AM 51.8 °F 51.8 °F 100% 29.79 in 7.0 mi NE 6.9 mph - N/A Rain , Thunderstorm Light Thunderstorms and Rain
4:05 AM 51.8 °F 51.8 °F 100% 29.78 in 7.0 mi ENE 5.8 mph - N/A   Overcast
4:25 AM 51.8 °F 51.8 °F 100% 29.77 in 7.0 mi ENE 9.2 mph - N/A   Overcast
4:45 AM 51.8 °F 51.8 °F 100% 29.76 in 7.0 mi NE 8.1 mph - N/A   Overcast
5:05 AM 51.8 °F 51.8 °F 100% 29.75 in 7.0 mi NE 9.2 mph - N/A Rain Light Rain
5:25 AM 50.0 °F 50.0 °F 100% 29.74 in 7.0 mi NE 10.4 mph - N/A Thunderstorm Overcast
5:45 AM 50.0 °F 50.0 °F 100% 29.74 in 5.0 mi NNE 6.9 mph - N/A   Overcast
6:05 AM 50.0 °F 50.0 °F 100% 29.72 in 10.0 mi NE 6.9 mph - N/A Rain , Thunderstorm Rain
6:25 AM 50.0 °F 50.0 °F 100% 29.72 in 7.0 mi NE 6.9 mph - N/A Rain Rain
6:45 AM 50.0 °F 50.0 °F 100% 29.72 in 5.0 mi NE 8.1 mph - 0.02 in Thunderstorm Drizzle
6:48 AM 51.8 °F 51.8 °F 100% 29.71 in 3.0 mi NE 5.8 mph - N/A   Drizzle
7:48 AM 50.0 °F 50.0 °F 100% 29.76 in 3.0 mi NE 4.6 mph - N/A Rain , Thunderstorm Thunderstorms and Rain
8:46 AM 51.8 °F 51.8 °F 100% 29.73 in 5.0 mi ENE 4.6 mph - N/A Rain Light Rain
11:50 AM 53.6 °F 53.6 °F 100% 29.71 in 5.0 mi NNE 5.8 mph - N/A   Overcast
12:50 PM 55.4 °F 55.4 °F 100% 29.70 in 10.0 mi North 4.6 mph - N/A   Overcast
1:50 PM 57.2 °F 55.4 °F 94% 29.68 in 5.0 mi North 9.2 mph - N/A   Overcast
2:52 PM 59.0 °F 55.4 °F 88% 29.65 in 5.0 mi North 6.9 mph - N/A   Overcast
3:52 PM 60.8 °F 57.2 °F 88% 29.64 in 5.0 mi NNE 9.2 mph - N/A   Overcast
4:50 PM 60.8 °F 57.2 °F 88% 29.64 in 5.0 mi NNE 10.4 mph - N/A   Overcast
5:50 PM 57.2 °F 55.4 °F 94% 29.64 in 4.0 mi North 16.1 mph - N/A   Overcast
6:15 PM 55.4 °F 55.4 °F 100% 29.66 in 2.5 mi North 12.7 mph - N/A   Mostly Cloudy
6:50 PM 53.6 °F 53.6 °F 100% 29.66 in 2.5 mi NNE 10.4 mph - N/A   Mostly Cloudy
7:50 PM 53.6 °F 53.6 °F 100% 29.67 in 3.0 mi NNE 11.5 mph - N/A Rain Light Rain
9:05 PM 50.0 °F 50.0 °F 100% 29.71 in 3.0 mi NNE 9.2 mph - N/A   Overcast
9:25 PM 50.0 °F 50.0 °F 100% 29.73 in 2.5 mi NNE 9.2 mph - N/A   Overcast
9:45 PM 50.0 °F 50.0 °F 100% 29.74 in 1.8 mi NNE 9.2 mph - N/A   Overcast
10:05 PM 50.0 °F 50.0 °F 100% 29.75 in 2.0 mi NNE 8.1 mph - N/A   Overcast
10:25 PM 50.0 °F 50.0 °F 100% 29.76 in 2.0 mi NNE 10.4 mph - N/A   Overcast
10:45 PM 50.0 °F 50.0 °F 100% 29.77 in 2.0 mi NNE 9.2 mph - N/A   Overcast
11:05 PM 50.0 °F 50.0 °F 100% 29.80 in 3.0 mi North 8.1 mph - N/A   Overcast
11:25 PM 50.0 °F 50.0 °F 100% 29.81 in 4.0 mi North 6.9 mph - N/A   Overcast
11:45 PM 50.0 °F 48.2 °F 94% 29.82 in 5.0 mi North 10.4 mph - N/A   Scattered Clouds